Location: Avully
(45.9633°N, 6.0228°E)
Time: 10:47:16
(UTC+00:00)

Cosmos 1242 Rocket - Pass Details

Date: 23 May 2024
Orbit: 322 x 337 km, 81.1° (Epoch: 14 June)

Event Time Altitude Azimuth Distance (km) Brightness Sun altitude
Exits shadow 01:14:00 27° 107° (ESE) 746 3.5 -19.5°
Maximum altitude 01:14:19 27° 94° (E) 734 3.6 -19.5°
Drops below altitude 10° 01:16:53 10° 33° (NNE) 1,364 6.1 -19.3°
Sets 01:19:02 0° 22° (NNE) 2,221 7.6 -19.2°
